Location: Ferintosh
(52.7647°N, 112.9692°W)
Time: 20:37:10
(UTC+00:00)

Transit 2A Rocket - Pass Details

Date: 23 May 2024
Orbit: 583 x 910 km, 66.7° (Epoch: 12 June)

Event Time Altitude Azimuth Distance (km) Brightness Sun altitude
Rises 19:41:43 0° 318° (NW) 3,397 8.1 57.9°
Reaches altitude 10° 19:44:09 10° 315° (NW) 2,498 7.6 57.9°
Maximum altitude 19:49:52 58° 238° (WSW) 1,038 7.1 57.8°
Drops below altitude 10° 19:55:47 10° 161° (SSE) 2,588 8.3 57.6°
Sets 19:58:21 0° 158° (SSE) 3,528 8.8 57.5°
